Location: Cahas Mountain Overlook
(37.0833°N, 80.1000°W)
Time: 10:09:47
(UTC-04:00)

Vanguard 1 Rocket - Pass Details

Date: 15 February 2026
Orbit: 653 x 4214 km, 34.3° (Epoch: 15 March)

Event Time Altitude Azimuth Distance (km) Brightness Sun altitude
Rises 22:20:54 0° 282° (WNW) 7,881 12.7 -51.2°
Reaches altitude 10° 22:28:05 10° 270° (W) 7,196 12.3 -52.4°
Maximum altitude 22:44:31 22° 230° (SW) 6,346 11.6 -55.1°
Enters shadow 22:55:02 16° 201° (SSW) 6,466 11.5 -56.7°
